DELTA 4 DEB, 40649

Orbit data source: Space-Track

DELTA 4 DEB, 40649 is space debris in HEO originally from a launch on Wed, 25 Mar 2015 UTC launched from the Air Force Eastern Test Range (AFETR). Debris objects in space refer to the collection of defunct objects orbiting the Earth. Examples of debris include non-operational satellites, rocket bodies, and fragments generated from explosions, collisions, or faulty payload assembly.

Loading next visibility...
Identifier
40649, 2015-013F
Orbit
HEO
Country
Flag of USUS
Related business
Flag of USUnited Launch Alliance/Lockheed Martin (US)
Manufacturer
Unknown
Mission
Spacecraft
Bus & Motor
Unknown
Mass
Unknown
Launch date (UTC)
2015-03-25 (11 years ago)
Launch vehicle
Unknown
Launch site
Air Force Eastern Test Range (AFETR)
Object type
Payload
Rocket body
Debris
Shape & HBR
Unknown shape, 1.1 m
Radar Cross Section
Medium (>0.1 m² and <1 m²)

Expand to show TLE details & history
Last TLE update: 4 months ago

TLE from 4 months ago
0 DELTA 4 DEB
1 40649U 15013F   26116.35369068  .00000012  00000-0  00000-0 0  9992
2 40649  52.8817 140.1639 5617774 206.4926 108.2872  3.87570613  9542
Epoch: 2026-04-26T08:29Z
TLE epoch observation values (Epoch: 2026-04-26T08:29:18.874Z)
Latitude
-0.00003°
Longitude
158.47045°
Altitude
17,187.703 km
Speed
3.248 km/s
True Right ascension
09h 20m 37s
True Declination
0° 00' 00"
Sunlit
Object was in daylight at epoch
Visualization orbit readout
Latitude
Unknown
Longitude
Unknown
Altitude
Unknown
Speed
Unknown
Apparent Right ascension
Unknown
Apparent Declination
Unknown
Sunlit
N/A
Visualization observer readout
Local Sidereal Time
18:40:45
Azimuth
Unknown
Elevation
Unknown
Doppler factor
Unknown
Orbital elements
Apogee altitude
20,359.684 km
Perigee altitude
1,124.288 km
Semi-major axis
17,120.123 km
Eccentricity
0.56178
Inclination
52.8817°
RAAN
140.1639°
Arg. of periapsis
206.4926°
True anomaly
153.54994°
Mean anomaly
108.2872°
Eccentric anomaly
132.1505°
Mean motion
0.96891 °/min
Orbital period
371.55 mins
BSTAR
0
Loading maneuver chart data...
Computing Atmospheric mass density...
Loading historical data...
Loading historical data...
Loading historical data...
Loading historical data...
Loading historical data...
Loading historical data...
Loading historical data...

Documentation

Showing up to 5 results
|